| time (UTC) | temp F | wind direction | speed knots | gust knots | rain 1hr in | rain 24hr in | rain mn in | humidity % | barometer mb |
| 20260510044528 | 72 | 345 | 0.9 | 3.5 | 0.00 | 0.00 | 0.00 | 67 | 1027.7 |
| 20260510043039 | 72 | 120 | 0.9 | 4.3 | 0.00 | 0.00 | 0.00 | 64 | 1027.5 |
| 20260510041529 | 72 | 132 | 0.9 | 4.3 | 0.00 | 0.00 | 0.00 | 63 | 1027.5 |
| 20260510040035 | 73 | 198 | 0.0 | 2.6 | 0.00 | 0.00 | 0.00 | 62 | 1027.9 |
| 20260510034524 | 74 | 188 | 0.9 | 4.3 | 0.00 | 0.00 | 0.00 | 61 | 1027.9 |
| 20260510033019 | 74 | 5 | 0.0 | 2.6 | 0.00 | 0.00 | 0.00 | 61 | 1027.7 |
| 20260510031523 | 74 | 265 | 0.0 | 3.5 | 0.00 | 0.00 | 0.00 | 61 | 1027.7 |
| 20260510030018 | 74 | 267 | 0.0 | 3.5 | 0.00 | 0.00 | 0.00 | 59 | 1027.8 |
| 20260510024516 | 74 | 282 | 0.0 | 4.3 | 0.00 | 0.00 | 0.00 | 61 | 1027.9 |
| 20260510023011 | 74 | 298 | 0.0 | 3.5 | 0.00 | 0.00 | 0.00 | 58 | 1027.9 |
| 20260510021521 | 74 | 259 | 0.0 | 1.7 | 0.00 | 0.00 | 0.00 | 59 | 1028.0 |
| 20260510020004 | 73 | 120 | 0.0 | 1.7 | 0.00 | 0.00 | 0.00 | 60 | 1028.2 |
| 20260510014600 | 73 | 153 | 0.0 | 1.7 | 0.00 | 0.00 | 0.00 | 60 | 1028.4 |
| 20260510013056 | 72 | 153 | 0.0 | 1.7 | 0.00 | 0.00 | 0.00 | 62 | 1028.4 |
| 20260510011553 | 70 | 308 | 0.0 | 1.7 | 0.00 | 0.00 | 0.00 | 63 | 1028.6 |
| 20260510010048 | 70 | 154 | 0.0 | 1.7 | 0.00 | 0.00 | 0.00 | 64 | 1028.9 |
| 20260510004545 | 69 | 119 | 0.0 | 1.7 | 0.00 | 0.00 | 0.00 | 65 | 1029.1 |
| 20260510003041 | 68 | 171 | 0.0 | 2.6 | 0.00 | 0.00 | 0.00 | 65 | 1029.0 |
| 20260510001541 | 67 | 123 | 0.0 | 2.6 | 0.00 | 0.00 | 0.00 | 66 | 1028.9 |
| 20260510000044 | 66 | 130 | 0.0 | 2.6 | 0.00 | 0.00 | 0.00 | 68 | 1028.8 |
| 20260509234528 | 64 | 255 | 0.0 | 1.7 | 0.00 | 0.00 | 0.00 | 71 | 1028.6 |
| 20260509233022 | 62 | 166 | 0.0 | 1.7 | 0.00 | 0.00 | 0.00 | 73 | 1028.6 |
| 20260509231518 | 61 | 124 | 0.0 | 2.6 | 0.00 | 0.00 | 0.00 | 75 | 1028.8 |
| 20260509230015 | 59 | 112 | 0.0 | 2.6 | 0.00 | 0.00 | 0.00 | 77 | 1028.8 |
| 20260509224510 | 58 | 321 | 0.0 | 1.7 | 0.00 | 0.00 | 0.00 | 79 | 1028.6 |
| 20260509223008 | 57 | 127 | 0.0 | 1.7 | 0.00 | 0.00 | 0.00 | 81 | 1028.6 |
| 20260509221600 | 55 | 142 | 0.0 | 2.6 | 0.00 | 0.00 | 0.00 | 84 | 1028.6 |
| 20260509220101 | 54 | 132 | 0.0 | 2.6 | 0.00 | 0.00 | 0.00 | 87 | 1028.5 |
| 20260509214610 | 52 | 133 | 0.0 | 2.6 | 0.00 | 0.00 | 0.00 | 88 | 1028.3 |
| 20260509213048 | 51 | 82 | 0.0 | 2.6 | 0.00 | 0.00 | 0.00 | 89 | 1028.0 |
| 20260509211543 | 51 | 108 | 0.0 | 2.6 | 0.00 | 0.00 | 0.00 | 90 | 1027.8 |
| 20260509210044 | 50 | 132 | 0.0 | 1.7 | 0.00 | 0.00 | 0.00 | 89 | 1027.8 |
| 20260509204542 | 50 | 138 | 0.0 | 1.7 | 0.00 | 0.00 | 0.00 | 89 | 1027.5 |
| 20260509203039 | 50 | 219 | 0.0 | 2.6 | 0.00 | 0.00 | 0.00 | 89 | 1027.3 |
| 20260509201535 | 50 | 153 | 0.0 | 1.7 | 0.00 | 0.00 | 0.00 | 89 | 1027.1 |
| 20260509200037 | 50 | 143 | 0.0 | 1.7 | 0.00 | 0.00 | 0.00 | 89 | 1027.1 |
| 20260509194534 | 50 | 128 | 0.0 | 1.7 | 0.00 | 0.00 | 0.00 | 88 | 1027.0 |
| 20260509193032 | 51 | 163 | 0.0 | 0.0 | 0.00 | 0.00 | 0.00 | 88 | 1026.8 |
| 20260509191539 | 51 | 146 | 0.0 | 0.9 | 0.00 | 0.00 | 0.00 | 88 | 1026.7 |
| 20260509190030 | 51 | 130 | 0.0 | 2.6 | 0.00 | 0.00 | 0.00 | 88 | 1026.3 |
| 20260509184534 | 52 | 138 | 0.0 | 1.7 | 0.00 | 0.00 | 0.00 | 88 | 1026.0 |
| 20260509183030 | 52 | 167 | 0.0 | 1.7 | 0.00 | 0.00 | 0.00 | 88 | 1025.9 |
| 20260509181522 | 52 | 177 | 0.0 | 1.7 | 0.00 | 0.00 | 0.00 | 88 | 1025.7 |
| 20260509180020 | 52 | 162 | 0.0 | 1.7 | 0.00 | 0.00 | 0.00 | 88 | 1025.8 |
| 20260509174523 | 52 | 140 | 0.0 | 1.7 | 0.00 | 0.00 | 0.00 | 88 | 1025.8 |
| 20260509173018 | 52 | 165 | 0.0 | 1.7 | 0.00 | 0.00 | 0.00 | 88 | 1025.9 |
| 20260509171516 | 52 | 134 | 0.0 | 0.0 | 0.00 | 0.00 | 0.00 | 87 | 1026.0 |
| 20260509170019 | 53 | 120 | 0.0 | 0.9 | 0.00 | 0.00 | 0.00 | 87 | 1026.0 |
| 20260509164514 | 53 | 163 | 0.0 | 0.9 | 0.00 | 0.00 | 0.00 | 87 | 1026.0 |
| 20260509163015 | 53 | 166 | 0.0 | 0.9 | 0.00 | 0.00 | 0.00 | 87 | 1025.9 |
| 20260509161511 | 53 | 169 | 0.0 | 0.9 | 0.00 | 0.00 | 0.00 | 87 | 1026.0 |
| 20260509160009 | 54 | 150 | 0.0 | 1.7 | 0.00 | 0.00 | 0.00 | 86 | 1026.0 |
| 20260509154507 | 54 | 152 | 0.0 | 1.7 | 0.00 | 0.00 | 0.00 | 86 | 1026.0 |
| 20260509153008 | 54 | 161 | 0.0 | 1.7 | 0.00 | 0.00 | 0.00 | 86 | 1025.9 |
| 20260509151505 | 54 | 173 | 0.0 | 0.9 | 0.00 | 0.00 | 0.00 | 86 | 1026.0 |
| 20260509150004 | 54 | 169 | 0.0 | 0.9 | 0.00 | 0.00 | 0.00 | 86 | 1026.1 |
| 20260509144503 | 54 | 148 | 0.0 | 0.9 | 0.00 | 0.00 | 0.00 | 86 | 1026.1 |
| 20260509143004 | 55 | 126 | 0.0 | 0.9 | 0.00 | 0.00 | 0.00 | 86 | 1026.0 |
| 20260509141600 | 55 | 136 | 0.0 | 0.9 | 0.00 | 0.00 | 0.00 | 86 | 1026.1 |
| 20260509134557 | 55 | 135 | 0.0 | 0.9 | 0.00 | 0.00 | 0.00 | 86 | 1026.0 |
| 20260509133056 | 55 | 132 | 0.0 | 1.7 | 0.00 | 0.00 | 0.00 | 86 | 1026.0 |
| 20260509131557 | 55 | 148 | 0.0 | 0.0 | 0.00 | 0.00 | 0.00 | 85 | 1026.0 |
| 20260509130106 | 55 | 148 | 0.0 | 0.0 | 0.00 | 0.00 | 0.00 | 85 | 1026.0 |
| 20260509124556 | 56 | 157 | 0.0 | 0.9 | 0.00 | 0.00 | 0.00 | 85 | 1026.1 |
| 20260509123053 | 56 | 154 | 0.0 | 0.9 | 0.00 | 0.00 | 0.00 | 84 | 1026.1 |
| 20260509121606 | 56 | 134 | 0.0 | 0.9 | 0.00 | 0.00 | 0.00 | 84 | 1026.2 |
| 20260509120051 | 56 | 154 | 0.0 | 0.9 | 0.00 | 0.00 | 0.00 | 84 | 1026.3 |
| 20260509114558 | 56 | 162 | 0.0 | 1.7 | 0.00 | 0.00 | 0.00 | 84 | 1026.1 |
| 20260509113055 | 57 | 140 | 0.0 | 0.9 | 0.00 | 0.00 | 0.00 | 84 | 1026.0 |
| 20260509111546 | 56 | 144 | 0.0 | 0.9 | 0.00 | 0.00 | 0.00 | 84 | 1026.0 |
| 20260509110048 | 56 | 133 | 0.0 | 0.9 | 0.00 | 0.00 | 0.00 | 84 | 1026.0 |
| 20260509104545 | 56 | 118 | 0.0 | 0.9 | 0.00 | 0.00 | 0.00 | 85 | 1026.0 |
| 20260509103052 | 56 | 350 | 0.0 | 0.0 | 0.00 | 0.00 | 0.00 | 85 | 1025.9 |
| 20260509101557 | 56 | 348 | 0.0 | 0.0 | 0.00 | 0.00 | 0.00 | 85 | 1025.8 |
| 20260509100040 | 56 | 348 | 0.0 | 0.0 | 0.00 | 0.00 | 0.00 | 82 | 1025.8 |
| 20260509094542 | 57 | 348 | 0.0 | 0.0 | 0.00 | 0.00 | 0.00 | 83 | 1025.6 |
| 20260509093036 | 57 | 348 | 0.0 | 0.0 | 0.00 | 0.00 | 0.00 | 82 | 1025.6 |
| 20260509091534 | 58 | 348 | 0.0 | 0.0 | 0.00 | 0.00 | 0.00 | 82 | 1025.4 |
| 20260509090037 | 58 | 348 | 0.0 | 0.0 | 0.00 | 0.00 | 0.00 | 80 | 1025.1 |
| 20260509084529 | 58 | 348 | 0.0 | 0.0 | 0.00 | 0.00 | 0.00 | 77 | 1025.0 |
| 20260509083035 | 59 | 348 | 0.0 | 0.0 | 0.00 | 0.00 | 0.00 | 76 | 1024.8 |
| 20260509081529 | 60 | 348 | 0.0 | 0.0 | 0.00 | 0.00 | 0.00 | 74 | 1024.7 |
| 20260509080025 | 61 | 348 | 0.0 | 0.0 | 0.00 | 0.00 | 0.00 | 71 | 1024.6 |
| 20260509074523 | 62 | 348 | 0.0 | 0.0 | 0.00 | 0.00 | 0.00 | 71 | 1024.4 |
| 20260509073028 | 63 | 349 | 0.0 | 0.0 | 0.00 | 0.00 | 0.00 | 69 | 1024.2 |
| 20260509071518 | 64 | 349 | 0.0 | 0.0 | 0.00 | 0.00 | 0.00 | 68 | 1024.1 |
| 20260509070018 | 64 | 349 | 0.0 | 0.9 | 0.00 | 0.00 | 0.00 | 66 | 1023.7 |
| 20260509064517 | 65 | 91 | 0.0 | 0.9 | 0.00 | 0.00 | 0.00 | 65 | 1023.7 |
| 20260509063021 | 66 | 178 | 0.0 | 0.9 | 0.00 | 0.00 | 0.00 | 64 | 1023.8 |
| 20260509061520 | 66 | 102 | 0.0 | 1.7 | 0.00 | 0.00 | 0.00 | 62 | 1023.9 |
| 20260509060015 | 67 | 34 | 0.0 | 2.6 | 0.00 | 0.00 | 0.00 | 61 | 1023.4 |
| 20260509054514 | 68 | 289 | 0.0 | 2.6 | 0.00 | 0.00 | 0.00 | 60 | 1023.5 |
| 20260509053010 | 69 | 106 | 0.0 | 2.6 | 0.00 | 0.00 | 0.00 | 58 | 1023.2 |
| 20260509051509 | 70 | 331 | 0.0 | 2.6 | 0.00 | 0.00 | 0.00 | 57 | 1023.3 |
| 20260509050014 | 70 | 211 | 0.0 | 1.7 | 0.00 | 0.00 | 0.00 | 56 | 1023.1 |